Location: The Saddle
(36.8333°N, 80.3417°W)
Time: 07:47:16
(UTC-04:00)

A-11 Canister half - Pass Details

Date: 01 June 2024
Orbit: 1515 x 1685 km, 47.2° (Epoch: 17 June)

Event Time Altitude Azimuth Distance (km) Brightness Sun altitude
Exits shadow 01:13:59 - 247° (WSW) 4,069 11.0 -31.0°
Reaches altitude 10° 01:14:42 10° 248° (WSW) 3,848 10.9 -31.0°
Maximum altitude 01:24:28 71° 332° (NNW) 1,654 9.1 -31.0°
Drops below altitude 10° 01:33:54 10° 57° (ENE) 3,724 11.4 -30.9°
Sets 01:36:57 0° 59° (ENE) 4,692 12.0 -30.9°
